Weather History for Princeton, MN

Change the Weather History Date:

Thursday, February 14, 2013

  Actual Average Record
Temperature  
Mean Temperature 19 °F -  
Max Temperature 30 °F 26 °F 42 °F (2002)
Min Temperature 8 °F 9 °F -7 °F (2007)
Degree Days  
Heating Degree Days 46    
Moisture  
Dew Point 12 °F    
Average Humidity 70    
Maximum Humidity 100    
Minimum Humidity 34    
Precipitation  
Precipitation 0.04 in - - ()
Sea Level Pressure  
Sea Level Pressure 29.90 in    
Wind  
Wind Speed 8 mph (NW)    
Max Wind Speed 16 mph    
Max Gust Speed 23 mph    
Visibility 9 miles    
Events Snow    
Averages and records for this station are not official NWS values.
T = Trace of Precipitation, MM = Missing Value Source: NWS Daily Summary

Daily Weather History Graph

Daily Weather History Graph

Search for Another Location

Airport:

Trip Planner

Search our weather history database for the weather conditions in past years. The results will help you decide how hot, cold, wet, or windy it might be!

Date:

Astronomy

Feb. 14, 2013 Rise Set
Actual Time 7:17 AM CST 5:40 PM CST
Civil Twilight 6:46 AM CST 6:11 PM CST
Nautical Twilight 6:12 AM CST 6:45 PM CST
Astronomical Twilight 5:37 AM CST 7:20 PM CST
Moon 9:02 AM CST (2/14) 11:02 PM CST (2/14)
Length of Visible Light 11h 24m
Length of Day
10h 23m
Waxing Crescent, 22% of the Moon is Illuminated
Feb 14
Waxing Crescent
Feb 17
First Quarter
Feb 25
Full
Mar 4
Last Quarter
Mar 11
New

Hourly Weather History & Observations

Time (CST) Temp. Windchill Dew Point Humidity Pressure Visibility Wind Dir Wind Speed Gust Speed Precip Events Conditions
12:11 AM 30.2 °F 19.8 °F 30.2 °F 100% 29.62 in 1.8 mi NNE 13.8 mph 17.3 mph N/A Snow Light Snow
12:32 AM 30.2 °F 18.9 °F 28.4 °F 93% 29.63 in 3.0 mi North 16.1 mph - N/A Snow Light Snow
12:51 AM 30.2 °F 23.4 °F 26.6 °F 86% 29.64 in 4.0 mi North 6.9 mph - N/A Snow Light Snow
1:11 AM 28.4 °F 20.4 °F 26.6 °F 93% 29.65 in 7.0 mi North 8.1 mph - N/A Snow Light Snow
1:32 AM 28.4 °F 21.2 °F 24.8 °F 86% 29.66 in 10.0 mi NNE 6.9 mph - N/A Snow Light Snow
1:51 AM 28.4 °F 23.3 °F 24.8 °F 86% 29.66 in 10.0 mi North 4.6 mph - N/A   Scattered Clouds
2:11 AM 28.4 °F 22.2 °F 24.8 °F 86% 29.67 in 10.0 mi NNW 5.8 mph - N/A   Scattered Clouds
2:31 AM 26.6 °F 20.0 °F 24.8 °F 93% 29.68 in 10.0 mi NW 5.8 mph - N/A   Mostly Cloudy
2:51 AM 26.6 °F 19.1 °F 24.8 °F 93% 29.69 in 10.0 mi NW 6.9 mph - N/A   Overcast
3:11 AM 26.6 °F 20.0 °F 23.0 °F 86% 29.70 in 10.0 mi NW 5.8 mph - N/A   Scattered Clouds
3:31 AM 26.6 °F 21.2 °F 23.0 °F 86% 29.70 in 10.0 mi NW 4.6 mph - N/A   Clear
3:51 AM 24.8 °F 19.1 °F 21.2 °F 86% 29.71 in 10.0 mi WNW 4.6 mph - N/A   Clear
4:11 AM 21.2 °F 16.4 °F 19.4 °F 93% 29.71 in 10.0 mi WNW 3.5 mph - N/A   Clear
4:31 AM 23.0 °F 18.4 °F 21.2 °F 93% 29.72 in 10.0 mi WNW 3.5 mph - N/A   Scattered Clouds
4:52 AM 21.2 °F - 19.4 °F 93% 29.72 in 10.0 mi Calm Calm - N/A   Mostly Cloudy
5:11 AM 21.2 °F - 19.4 °F 93% 29.73 in 10.0 mi Calm Calm - N/A   Overcast
5:31 AM 21.2 °F 14.9 °F 19.4 °F 93% 29.74 in 10.0 mi West 4.6 mph - N/A   Overcast
5:52 AM 21.2 °F 14.9 °F 17.6 °F 86% 29.75 in 10.0 mi West 4.6 mph - N/A   Scattered Clouds
6:11 AM 19.4 °F 14.3 °F 17.6 °F 93% 29.75 in 10.0 mi West 3.5 mph - N/A   Clear
6:31 AM 17.6 °F 10.7 °F 15.8 °F 93% 29.77 in 10.0 mi West 4.6 mph - N/A   Clear
6:52 AM 17.6 °F 9.3 °F 15.8 °F 93% 29.77 in 10.0 mi West 5.8 mph - N/A   Clear
7:11 AM 17.6 °F 9.3 °F 15.8 °F 93% 29.78 in 10.0 mi West 5.8 mph - N/A   Clear
7:31 AM 19.4 °F 11.5 °F 17.6 °F 93% 29.78 in 10.0 mi WNW 5.8 mph - N/A   Scattered Clouds
7:51 AM 19.4 °F 11.5 °F 17.6 °F 93% 29.79 in 10.0 mi WNW 5.8 mph - N/A   Scattered Clouds
8:11 AM 19.4 °F 11.5 °F 17.6 °F 93% 29.79 in 10.0 mi WNW 5.8 mph - N/A   Clear
8:31 AM 21.2 °F 14.9 °F 19.4 °F 93% 29.80 in 10.0 mi WNW 4.6 mph - N/A   Clear
8:51 AM 21.2 °F 11.7 °F 19.4 °F 93% 29.81 in 10.0 mi NW 8.1 mph - N/A   Clear
9:11 AM 23.0 °F 15.8 °F 19.4 °F 86% 29.82 in 10.0 mi NW 5.8 mph - N/A   Clear
9:31 AM 23.0 °F 13.9 °F 19.4 °F 86% 29.83 in 10.0 mi NW 8.1 mph - N/A   Clear
9:51 AM 23.0 °F 12.4 °F 19.4 °F 86% 29.84 in 10.0 mi NW 10.4 mph - N/A   Clear
10:11 AM 24.8 °F 14.6 °F 19.4 °F 80% 29.85 in 0.8 mi NNW 10.4 mph 16.1 mph N/A   Haze
10:31 AM 24.8 °F 12.9 °F 19.4 °F 80% 29.86 in 1.0 mi NNW 13.8 mph - N/A Snow Light Snow
10:51 AM 23.0 °F 13.1 °F 17.6 °F 80% 29.87 in 7.0 mi North 9.2 mph - N/A   Scattered Clouds
11:11 AM 24.8 °F 15.3 °F 17.6 °F 74% 29.87 in 10.0 mi NW 9.2 mph - N/A   Scattered Clouds
11:31 AM 24.8 °F 14.0 °F 17.6 °F 74% 29.88 in 10.0 mi NW 11.5 mph - N/A   Clear
11:51 AM 24.8 °F 14.6 °F 15.8 °F 69% 29.88 in 10.0 mi NW 10.4 mph - N/A   Clear
12:11 PM 26.6 °F 15.7 °F 15.8 °F 64% 29.89 in 10.0 mi NW 12.7 mph - N/A   Clear
12:31 PM 26.6 °F 17.5 °F 14.0 °F 59% 29.89 in 10.0 mi NW 9.2 mph 18.4 mph N/A   Clear
12:51 PM 26.6 °F 15.7 °F 12.2 °F 55% 29.89 in 10.0 mi NW 12.7 mph - N/A   Clear
1:11 PM 26.6 °F 16.8 °F 15.8 °F 64% 29.90 in 10.0 mi NW 10.4 mph - 0.01 in   Clear
1:31 PM 26.6 °F 16.2 °F 15.8 °F 64% 29.91 in 10.0 mi NW 11.5 mph - 0.03 in   Clear
1:51 PM 26.6 °F 14.3 °F 3.2 °F 37% 29.92 in 10.0 mi NNW 16.1 mph 21.9 mph 0.04 in   Clear
2:11 PM 24.8 °F 14.0 °F 5.0 °F 43% 29.93 in 10.0 mi NNW 11.5 mph - N/A   Clear
2:31 PM 24.8 °F 13.4 °F 1.4 °F 36% 29.94 in 10.0 mi North 12.7 mph 19.6 mph N/A   Clear
2:51 PM 24.8 °F 14.6 °F 3.2 °F 40% 29.95 in 10.0 mi North 10.4 mph - N/A   Clear
3:11 PM 24.8 °F 14.0 °F -0.4 °F 34% 29.97 in 10.0 mi North 11.5 mph 18.4 mph N/A   Clear
3:32 PM 24.8 °F 11.9 °F -0.4 °F 34% 29.98 in 10.0 mi NNW 16.1 mph - N/A   Clear
3:51 PM 24.8 °F 11.9 °F -0.4 °F 34% 29.99 in 10.0 mi NNW 16.1 mph 23.0 mph N/A   Clear
4:11 PM 24.8 °F 14.0 °F -0.4 °F 34% 30.00 in 10.0 mi NNW 11.5 mph 17.3 mph N/A   Clear
4:32 PM 24.8 °F 14.0 °F -0.4 °F 34% 30.01 in 10.0 mi NNW 11.5 mph 16.1 mph N/A   Clear
4:51 PM 23.0 °F 13.9 °F 1.4 °F 39% 30.02 in 10.0 mi NNW 8.1 mph - N/A   Clear
5:11 PM 21.2 °F 10.9 °F 1.4 °F 42% 30.04 in 10.0 mi WNW 9.2 mph - N/A   Clear
5:31 PM 21.2 °F 11.7 °F 3.2 °F 46% 30.05 in 10.0 mi WNW 8.1 mph - N/A   Clear
5:51 PM 19.4 °F 8.6 °F 3.2 °F 49% 30.06 in 10.0 mi WNW 9.2 mph - N/A   Clear
6:12 PM 19.4 °F 8.6 °F 3.2 °F 49% 30.07 in 10.0 mi NW 9.2 mph - N/A   Clear
6:31 PM 17.6 °F 8.2 °F 1.4 °F 49% 30.08 in 10.0 mi WNW 6.9 mph - N/A   Clear
6:51 PM 17.6 °F 8.2 °F 1.4 °F 49% 30.08 in 10.0 mi WNW 6.9 mph - N/A   Clear
7:12 PM 15.8 °F 6.1 °F 1.4 °F 53% 30.09 in 10.0 mi WNW 6.9 mph - N/A   Clear
7:31 PM 14.0 °F 2.9 °F 1.4 °F 57% 30.10 in 10.0 mi WNW 8.1 mph - N/A   Clear
7:51 PM 14.0 °F 5.1 °F 1.4 °F 57% 30.11 in 10.0 mi WNW 5.8 mph - N/A   Clear
8:12 PM 14.0 °F 5.1 °F -0.4 °F 53% 30.11 in 10.0 mi NW 5.8 mph - N/A   Clear
8:31 PM 12.2 °F 4.3 °F -0.4 °F 57% 30.12 in 10.0 mi WNW 4.6 mph - N/A   Clear
8:51 PM 14.0 °F 6.5 °F -0.4 °F 53% 30.12 in 10.0 mi NW 4.6 mph - N/A   Clear
9:12 PM 10.4 °F 0.8 °F -2.2 °F 57% 30.13 in 10.0 mi WNW 5.8 mph - N/A   Clear
9:31 PM 10.4 °F 0.8 °F -2.2 °F 57% 30.13 in 10.0 mi West 5.8 mph - N/A   Clear
9:51 PM 8.6 °F -2.6 °F -2.2 °F 62% 30.14 in 10.0 mi West 6.9 mph - N/A   Clear
10:11 PM 10.4 °F -0.4 °F -2.2 °F 57% 30.14 in 10.0 mi West 6.9 mph - N/A   Clear
10:31 PM 10.4 °F -0.4 °F 1.4 °F 67% 30.14 in 10.0 mi West 6.9 mph - N/A   Mostly Cloudy
10:51 PM 10.4 °F -2.4 °F 1.4 °F 67% 30.14 in 10.0 mi West 9.2 mph - N/A   Overcast
11:11 PM 10.4 °F -2.4 °F 1.4 °F 67% 30.14 in 10.0 mi West 9.2 mph - N/A   Overcast
11:31 PM 10.4 °F -1.5 °F 1.4 °F 67% 30.14 in 10.0 mi West 8.1 mph - N/A   Overcast
11:51 PM 10.4 °F -2.4 °F -0.4 °F 62% 30.15 in 10.0 mi WNW 9.2 mph - N/A   Overcast